TimeCDT,TemperatureF,Dew PointF,Humidity,Sea Level PressureIn,VisibilityMPH,Wind Direction,Wind SpeedMPH,Gust SpeedMPH,PrecipitationIn,Events,Conditions,WindDirDegrees,DateUTC
12:15 AM,34.9,30.2,83,30.15,10.0,Calm,Calm,-,N/A,,Clear,0,2012-10-30 05:15:00
12:55 AM,33.8,30.9,89,30.15,10.0,Calm,Calm,-,N/A,,Clear,0,2012-10-30 05:55:00
1:35 AM,34.2,30.2,85,30.14,10.0,Calm,Calm,-,N/A,,Clear,0,2012-10-30 06:35:00
1:55 AM,33.6,30.2,87,30.13,10.0,Calm,Calm,-,N/A,,Clear,0,2012-10-30 06:55:00
2:15 AM,32.9,30.6,91,30.13,10.0,Calm,Calm,-,N/A,,Clear,0,2012-10-30 07:15:00
2:35 AM,32.2,31.1,96,30.13,10.0,Calm,Calm,-,N/A,,Clear,0,2012-10-30 07:35:00
3:15 AM,32.2,30.9,95,30.13,10.0,Calm,Calm,-,N/A,,Clear,0,2012-10-30 08:15:00
3:35 AM,31.3,30.4,96,30.12,10.0,Calm,Calm,-,N/A,,Clear,0,2012-10-30 08:35:00
3:55 AM,30.9,30.4,98,30.12,10.0,Calm,Calm,-,N/A,,Clear,0,2012-10-30 08:55:00
4:15 AM,30.7,30.2,98,30.11,10.0,Calm,Calm,-,N/A,,Clear,0,2012-10-30 09:15:00
4:35 AM,30.0,29.7,99,30.11,10.0,Calm,Calm,-,N/A,,Clear,0,2012-10-30 09:35:00
4:55 AM,29.3,29.1,99,30.11,10.0,Calm,Calm,-,N/A,,Clear,0,2012-10-30 09:55:00
5:15 AM,29.5,29.3,99,30.11,10.0,Calm,Calm,-,N/A,,Clear,0,2012-10-30 10:15:00
5:35 AM,30.2,29.8,99,30.10,10.0,Calm,Calm,-,N/A,,Clear,0,2012-10-30 10:35:00
5:55 AM,30.6,29.8,97,30.10,10.0,Calm,Calm,-,N/A,,Clear,0,2012-10-30 10:55:00
6:15 AM,30.6,30.0,98,30.09,10.0,Calm,Calm,-,N/A,,Clear,0,2012-10-30 11:15:00
6:55 AM,31.3,30.9,99,30.10,5.0,Calm,Calm,-,N/A,,Clear,0,2012-10-30 11:55:00
7:15 AM,29.3,29.1,99,30.10,7.0,Calm,Calm,-,N/A,,Scattered Clouds,0,2012-10-30 12:15:00
7:55 AM,28.0,27.9,99,30.11,10.0,Calm,Calm,-,N/A,,Clear,0,2012-10-30 12:55:00
8:15 AM,29.5,28.9,98,30.11,10.0,Calm,Calm,-,N/A,,Clear,0,2012-10-30 13:15:00
8:35 AM,30.9,29.8,96,30.11,10.0,Calm,Calm,-,N/A,,Clear,0,2012-10-30 13:35:00
8:55 AM,32.4,31.5,96,30.10,10.0,Calm,Calm,-,N/A,,Clear,0,2012-10-30 13:55:00
9:15 AM,34.0,32.5,94,30.10,10.0,Calm,Calm,-,N/A,,Clear,0,2012-10-30 14:15:00
9:35 AM,36.5,33.6,89,30.09,10.0,Calm,Calm,-,N/A,,Clear,0,2012-10-30 14:35:00
9:55 AM,40.3,33.4,77,30.09,10.0,Calm,Calm,-,N/A,,Clear,0,2012-10-30 14:55:00
10:15 AM,43.9,29.5,57,30.09,10.0,NE,4.6,-,N/A,,Clear,50,2012-10-30 15:15:00
10:35 AM,45.7,27.5,49,30.09,10.0,East,4.6,-,N/A,,Clear,80,2012-10-30 15:35:00
10:55 AM,47.5,27.1,45,30.08,10.0,NE,3.5,-,N/A,,Clear,40,2012-10-30 15:55:00
11:15 AM,49.1,26.6,42,30.08,10.0,ENE,3.5,-,N/A,,Clear,60,2012-10-30 16:15:00
11:35 AM,50.0,27.3,41,30.07,10.0,North,4.6,-,N/A,,Clear,350,2012-10-30 16:35:00
11:55 AM,50.0,25.5,39,30.07,10.0,Calm,Calm,-,N/A,,Clear,0,2012-10-30 16:55:00
12:35 PM,52.9,25.9,35,30.05,10.0,Calm,Calm,-,N/A,,Clear,0,2012-10-30 17:35:00
12:55 PM,54.0,26.2,34,30.05,10.0,NW,4.6,-,N/A,,Clear,320,2012-10-30 17:55:00
1:15 PM,54.0,25.3,33,30.04,10.0,Calm,Calm,-,N/A,,Clear,0,2012-10-30 18:15:00
1:35 PM,54.0,24.8,32,30.03,10.0,Calm,Calm,-,N/A,,Clear,0,2012-10-30 18:35:00
1:55 PM,54.1,24.8,32,30.03,10.0,NW,3.5,-,N/A,,Clear,310,2012-10-30 18:55:00
2:15 PM,55.4,24.6,30,30.01,10.0,WNW,4.6,-,N/A,,Clear,300,2012-10-30 19:15:00
2:35 PM,56.1,24.4,29,30.00,10.0,WNW,5.8,-,N/A,,Clear,300,2012-10-30 19:35:00
2:55 PM,55.9,24.6,30,30.00,10.0,NW,6.9,-,N/A,,Clear,320,2012-10-30 19:55:00
3:15 PM,56.3,24.3,29,29.99,10.0,WNW,3.5,-,N/A,,Clear,290,2012-10-30 20:15:00
3:35 PM,55.0,24.1,30,29.99,10.0,WNW,6.9,-,N/A,,Scattered Clouds,300,2012-10-30 20:35:00
3:55 PM,54.7,24.8,32,29.99,10.0,NW,6.9,-,N/A,,Mostly Cloudy,310,2012-10-30 20:55:00
4:15 PM,54.1,25.3,33,29.98,10.0,NW,5.8,-,N/A,,Overcast,310,2012-10-30 21:15:00
4:35 PM,54.0,26.8,35,29.98,10.0,NW,6.9,-,N/A,,Mostly Cloudy,310,2012-10-30 21:35:00
4:55 PM,53.6,27.7,37,29.98,10.0,NW,5.8,-,N/A,,Overcast,310,2012-10-30 21:55:00
5:15 PM,53.1,27.1,37,29.98,10.0,NW,4.6,-,N/A,,Mostly Cloudy,310,2012-10-30 22:15:00
5:35 PM,51.8,26.1,37,29.97,10.0,WNW,3.5,-,N/A,,Scattered Clouds,290,2012-10-30 22:35:00
5:55 PM,51.3,25.5,37,29.97,10.0,West,3.5,-,N/A,,Clear,280,2012-10-30 22:55:00
6:15 PM,50.7,25.3,37,29.98,10.0,WNW,3.5,-,N/A,,Clear,290,2012-10-30 23:15:00
6:35 PM,50.5,25.0,37,29.98,10.0,West,3.5,-,N/A,,Clear,280,2012-10-30 23:35:00
6:55 PM,50.5,25.0,37,29.98,10.0,WNW,3.5,-,N/A,,Clear,290,2012-10-30 23:55:00
7:15 PM,50.0,26.6,40,29.98,10.0,WNW,4.6,-,N/A,,Clear,290,2012-10-31 00:15:00
7:35 PM,49.8,27.0,41,29.98,10.0,WNW,4.6,-,N/A,,Clear,290,2012-10-31 00:35:00
7:55 PM,49.6,26.1,40,29.98,10.0,WNW,3.5,-,N/A,,Clear,300,2012-10-31 00:55:00
8:15 PM,48.7,25.9,41,29.98,10.0,WNW,3.5,-,N/A,,Clear,300,2012-10-31 01:15:00
8:35 PM,47.8,26.1,43,29.98,10.0,WNW,4.6,-,N/A,,Clear,300,2012-10-31 01:35:00
8:55 PM,46.8,26.8,46,29.98,10.0,WNW,4.6,-,N/A,,Clear,300,2012-10-31 01:55:00
9:15 PM,46.6,26.8,46,29.98,10.0,WNW,4.6,-,N/A,,Clear,300,2012-10-31 02:15:00
9:35 PM,46.2,26.8,47,29.99,10.0,NW,3.5,-,N/A,,Clear,310,2012-10-31 02:35:00
9:55 PM,46.2,26.6,46,29.99,10.0,NW,3.5,-,N/A,,Clear,310,2012-10-31 02:55:00
10:15 PM,45.9,26.6,47,29.99,10.0,NW,4.6,-,N/A,,Clear,310,2012-10-31 03:15:00
10:35 PM,45.3,26.8,48,29.99,10.0,NW,3.5,-,N/A,,Clear,310,2012-10-31 03:35:00
11:15 PM,44.6,26.6,49,29.99,10.0,NW,4.6,-,N/A,,Clear,320,2012-10-31 04:15:00
11:35 PM,44.4,26.8,50,29.99,10.0,Calm,Calm,-,N/A,,Clear,0,2012-10-31 04:35:00
11:55 PM,43.7,27.1,52,30.00,10.0,NW,3.5,-,N/A,,Clear,310,2012-10-31 04:55:00